Location: Newark
(60.1950°N, 25.0308°E)
Time: 23:48:01
(UTC+00:00)

Envisat - Visible Passes

Search period start: 22 October 2019 00:00
Search period end: 01 November 2019 00:00
Orbit: 764 x 766 km, 98.1° (Epoch: 22 October)

Date Brightness Start Highest point End Pass type
(mag) Time Alt. Az. Time Alt. Az. Time Alt. Az.
22 Oct 3.6 16:20:50 10° S 16:25:53 63° WSW 16:30:58 10° NNW visible
22 Oct 6.0 18:03:05 10° WSW 18:05:59 15° W 18:08:53 10° NW visible
23 Oct 5.7 04:19:54 10° NE 04:24:04 25° E 04:28:13 10° SE visible
23 Oct 3.0 15:43:58 10° SSE 15:49:04 78° ENE 15:54:10 10° NNW visible
23 Oct 5.3 17:24:28 10° SW 17:28:40 25° W 17:32:53 10° NNW visible
24 Oct 6.2 03:43:57 10° NE 03:46:44 15° E 03:49:31 10° ESE visible
24 Oct 4.3 16:46:42 10° S 16:51:32 43° W 16:56:24 10° NNW visible
25 Oct 3.3 16:09:30 10° S 16:14:35 74° WSW 16:19:42 10° NNW visible
25 Oct 5.8 17:51:09 10° SW 17:54:31 18° W 17:57:56 10° NW visible
26 Oct 5.9 04:08:47 10° NE 04:12:39 21° E 04:16:30 10° SE visible
26 Oct 3.0 15:32:45 10° SSE 15:37:48 68° ENE 15:42:52 10° NNW visible
26 Oct 5.0 17:12:50 10° SSW 17:17:16 30° W 17:21:44 10° NNW visible
27 Oct 6.3 03:33:12 10° NE 03:35:16 12° ENE 03:37:19 10° ESE visible
27 Oct 4.0 16:35:15 10° S 16:40:12 50° W 16:45:11 10° NNW visible
27 Oct 6.2 18:18:37 10° W 18:20:29 12° WNW 18:22:22 10° NW visible
28 Oct 5.2 04:33:58 10° NNE 04:38:28 30° E 04:42:57 10° SSE visible
28 Oct 3.1 15:58:11 10° SSE 16:03:18 85° WSW 16:08:26 10° NNW visible
28 Oct 5.6 17:39:19 10° SW 17:43:06 21° W 17:46:54 10° NW visible
29 Oct 6.0 03:57:44 10° NE 04:01:13 18° E 04:04:41 10° SE visible
29 Oct 3.1 15:21:35 10° SE 15:26:33 58° ENE 15:31:34 10° NNW visible
29 Oct 4.7 17:01:16 10° SSW 17:05:54 34° W 17:10:33 10° NNW visible
30 Oct 6.6 03:23:09 10° ENE 03:23:47 10° ENE 03:24:24 10° E visible
30 Oct 3.6 16:23:51 10° S 16:28:53 59° WSW 16:33:56 10° NNW visible
30 Oct 6.0 18:06:22 10° WSW 18:09:01 14° W 18:11:41 10° NW visible
31 Oct 5.5 04:22:49 10° NNE 04:27:05 26° E 04:31:20 10° SSE visible
31 Oct 3.0 15:46:55 10° SSE 15:52:01 83° ENE 15:57:09 10° NNW visible
31 Oct 5.3 17:27:36 10° SW 17:31:41 24° W 17:35:48 10° NW visible
